Regional Weather Roundup
Issued by NWS

Home | Current Version | Previous Version | Graphics & Text | Print | Product List | Glossary On
Versions: 1 2 3 4 5 6 7 8 9 10 11 12 13 14 15 16 17 18 19 20 21 22 23 24 25 26 27 28 29 30 31 32 33 34 35 36 37 38 39 40 41 42 43 44 45 46 47 48 49 50
000
ASUS43 KMPX 201610
RWRMN
WEATHER ROUNDUP FOR MINNESOTA
NATIONAL WEATHER SERVICE TWIN CITIES/CHANHASSEN MN
1000 AM CST SAT DEC 20 2014


NOTE: "FAIR" INDICATES FEW OR NO CLOUDS BELOW 12,000 FEET WITH NO
SIGNIFICANT WEATHER AND/OR OBSTRUCTIONS TO VISIBILITY. N/A MEANS
CURRENT SKY AND/OR WEATHER CONDITIONS ARE NOT AVAILABLE.

MNZ060>063-068>070-201700-
   Twin Cities Metro

CITY           SKY/WX    TMP DP  RH WIND       PRES   REMARKS
TWIN CITIES    CLOUDY    30  27  88 S9        30.15S FOG     WCI  22
ST PAUL        CLOUDY    30  27  88 S10       30.17S FOG     WCI  21
CRYSTAL        CLOUDY    32  28  85 S7        30.13S FOG     WCI  26
LAKEVILLE      CLOUDY    28  27  93 S6        30.15S FOG     WCI  22
EDEN PRAIRIE   CLOUDY    31  28  89 S13       30.13S FOG     WCI  21
SOUTH ST PAUL  CLOUDY    31  28  86 S7        30.16S FOG     WCI  25
LAKE ELMO      CLOUDY    30  28  93 SE7       30.16S FOG     WCI  23
$$
MNZ001>005-007-008-013>017-022>024-027-028-201700-
   Northwest Minnesota

CITY           SKY/WX    TMP DP  RH WIND       PRES   REMARKS
BEMIDJI          N/A     29  28  96 S7        30.02S WCI  22
HALLOCK        CLOUDY    28  27  93 CALM      30.00S FOG
ROSEAU         CLOUDY    30  25  80 SW8       30.02R HAZE    WCI  23
WARROAD        CLOUDY    28  25  86 CALM      30.02R FOG
THIEF RVR FALL CLOUDY    28  28 100 S13       30.01S WCI  18
CROOKSTON      CLOUDY    28  28 100 S9        30.02S FOG     WCI  20
FOSSTON        CLOUDY    27  27 100 S9        30.02S FOG     WCI  17
DETROIT LAKES  CLOUDY    30  30 100 S10       30.03S FOG     WCI  21
MOORHEAD       CLOUDY    30  30 100 S6        30.04S FOG     WCI  24
PARK RAPIDS    CLOUDY    29  27  92 S13       30.03S FOG     WCI  19
MAHNOMEN       CLOUDY    29  28  96 S10       30.02S FOG     WCI  20
$$
MNZ006-009>011-018-025>026-201700-
   North Central Minnesota

CITY           SKY/WX    TMP DP  RH WIND       PRES   REMARKS
BAUDETTE       CLOUDY    29  27  92 S5        30.02R FOG     WCI  24
FLAG ISLAND    CLOUDY    27  27 100 S10       30.01S WCI  17
INTL FALLS     CLOUDY    28  26  92 VRB5      30.04S FOG     WCI  23
WASKISH        CLOUDY    30  28  93 CALM      30.03S FOG
BIG FORK       MIX PCPN  28  27  93 S3        30.05R
LONGVILLE      CLOUDY    30  28  93 S10       30.05R FOG     WCI  21
GRAND RAPIDS   CLOUDY    27  27 100 SE8       30.05S VSB 1   WCI  18
CRANE LAKE     LGT SNOW  27  25  93 S3        30.10S
ORR            MIX PCPN  27  23  86 SE6       30.04S WCI  20
COOK           LGT SNOW  27  25  93 SE3       30.07F
WALKER         CLOUDY    29  27  95 S6        30.03S FOG     WCI  22
$$
MNZ012-019>021-037-201700-
   Northeast Minnesota

CITY           SKY/WX    TMP DP  RH WIND       PRES   REMARKS
DULUTH         LGT SNOW  27  24  89 S8        30.10F FOG     WCI  19
ELY            LGT SNOW  27  25  93 S3        30.09S
HIBBING        CLOUDY    28  25  88 S7        30.07F FOG     WCI  21
EVELETH        CLOUDY    28  27  93 S8        30.10S FOG     WCI  20
DULUTH HARBOR  CLOUDY    30  27  86 CALM      30.16F
TWO HARBORS    CLOUDY    30  27  86 S5        30.12S WCI  25
SILVER BAY     LGT SNOW  30  27  86 S3        30.12F
GRAND MARAIS     N/A     33  28  81 S9        30.18R WCI  25
G MARAIS ARPRT CLOUDY    25  23  93 CALM      30.12R FOG
$$
MNZ029>031-032-039>041-046>048-054>057-064-201700-
   West Central Minnesota

CITY           SKY/WX    TMP DP  RH WIND       PRES   REMARKS
FERGUS FALLS   CLOUDY    28  28 100 S10       30.07S FOG     WCI  19
WHEATON        CLOUDY    28  27  93 S12       30.06F FOG     WCI  18
MORRIS         MOSUNNY   30  28  93 S12       30.05R FOG     WCI  21
ALEXANDRIA     CLOUDY    30  27  88 S12       30.05F FOG     WCI  20
ELBOW LAKE     CLOUDY    29  28  95 S14       30.04S FOG     WCI  19
WADENA         CLOUDY    28  27  93 S9        30.05R FOG     WCI  20
GLENWOOD       CLOUDY    30  28  93 S16       30.07S FOG     WCI  19
APPLETON       CLOUDY    34  28  80 S8        30.07S FOG     WCI  27
BENSON         CLOUDY    32  28  86 SW12G17   30.08R FOG     WCI  23
ORTONVILLE     CLOUDY    30  27  86 S9        30.05R FOG     WCI  22
MADISON        SUNNY     36  32  87 S8        30.06F FOG
WILLMAR        CLOUDY    32  28  86 S5        30.11R FOG     WCI  27
$$
MNZ033>034-036-042>043-049>051-058-059-201700-
   Central Minnesota

CITY           SKY/WX    TMP DP  RH WIND       PRES   REMARKS
ST CLOUD       CLOUDY    32  28  85 S9        30.11R FOG     WCI  24
SAUK CENTRE    CLOUDY    30  28  92 S10       30.08S FOG     WCI  21
PAYNESVILLE    CLOUDY    28  26  94 SE8G16    30.10R FOG     WCI  20
AITKIN         HAZE      30  27  86 S7        30.06S VSB 1   WCI  23
PINE RIVER     CLOUDY    28  28 100 S10       30.09R FOG     WCI  19
BRAINERD       CLOUDY    30  28  92 S13       30.07S FOG     WCI  20
STAPLES        CLOUDY    28  27  93 S9G16     30.06R FOG     WCI  20
LONG PRAIRIE   CLOUDY    30  28  93 S13       30.07S FOG     WCI  20
LITTLE FALLS   CLOUDY    30  28  93 S9        30.09S FOG     WCI  22
LITCHFIELD     CLOUDY    30  30 100 S6        30.11S WCI  24
BUFFALO        CLOUDY    31  29  94 S7        30.14R FOG     WCI  24
MAPLE LAKE     CLOUDY    32  30  94 S6G16     30.13R WCI  26
$$
MNZ037-044-045-052-053-201700-
   East Central Minnesota

CITY           SKY/WX    TMP DP  RH WIND       PRES   REMARKS
PRINCETON      CLOUDY    32  28  86 S7        30.12S FOG     WCI  26
MORA           CLOUDY    30  27  86 S7        30.14S WCI  23
CAMBRIDGE      CLOUDY    32  25  74 SE7       30.12S HAZE    WCI  26
RUSH CITY      CLOUDY    30  26  87 SE8       30.14S WCI  22
MOOSE LAKE     CLOUDY    30  27  86 S5        30.11S FOG     WCI  25
HINCKLEY       CLOUDY    30  28  93 CALM      30.13S FOG
CLOQUET        CLOUDY    27  25  93 SE6       30.11S FOG     WCI  20
MCGREGOR       CLOUDY    30  28  93 S9        30.09S WCI  22
$$
MNZ071>073-080-081-089-090-097-098-201700-
   Southwest Minnesota

CITY           SKY/WX    TMP DP  RH WIND       PRES   REMARKS
MONTEVIDEO     CLOUDY    30  30 100 SW13      30.09S FOG     WCI  20
GRANITE FALLS  CLOUDY    32  29  88 S10       30.11R FOG     WCI  23
CANBY          CLOUDY    32  29  90 SW9       30.07S FOG     WCI  24
MARSHALL       CLOUDY    32  27  80 SW12      30.08S WCI  23
REDWOOD FALLS  CLOUDY    31  28  89 S9        30.11R WCI  23
OLIVIA         CLOUDY    32  30  93 S10       30.10S WCI  24
PIPESTONE      CLOUDY    30  28  93 SW6       30.05S FOG     WCI  24
WINDOM         CLOUDY    30  28  93 S7        30.10R FOG     WCI  23
WORTHINGTON    CLOUDY    30  28  93 S13       30.09S WCI  20
JACKSON        CLOUDY    30  28  93 S9        30.11R WCI  22
TRACY          CLOUDY    32  30  92 S9        30.09R FOG     WCI  24
SLAYTON        CLOUDY    30  29  97 S6        30.08R FOG     WCI  24
$$
MNZ065>067-074>077-082>085-091>093-201700-
   South Central Minnesota

CITY           SKY/WX    TMP DP  RH WIND       PRES   REMARKS
MANKATO        CLOUDY    30  25  80 S14       30.14R WCI  20
NEW ULM        CLOUDY    30  28  93 S8        30.13R WCI  23
ST JAMES       CLOUDY    30  28  93 SE8       30.14R WCI  23
FAIRMONT       CLOUDY    28  25  86 S12       30.12F WCI  18
GLENCOE        CLOUDY    32  30  92 S10       30.13R WCI  24
FARIBAULT      CLOUDY    30  28  93 S9        30.15S FOG     WCI  22
OWATONNA       FOG       30  28  93 S8        30.15R VSB 1   WCI  23
WASECA         CLOUDY    32  32 100 S7        30.16S FOG     WCI  26
ALBERT LEA     CLOUDY    30  30 100 S7        30.14S FOG     WCI  23
$$
MNZ078>079-086>088-094>096-201700-
   Southeast Minnesota

CITY           SKY/WX    TMP DP  RH WIND       PRES   REMARKS
ROCHESTER      FOG       28  27  96 S10       30.15F VSB 3/4 WCI  19
RED WING       CLOUDY    30  27  86 SE6       30.17S HAZE    WCI  24
STANTON        CLOUDY    32  28  87 S8        30.15S FOG     WCI  24
DODGE CENTER   CLOUDY    28  28 100 S10       30.15R FOG     WCI  19
WINONA         CLOUDY    32  28  86 SE5       30.21F HAZE    WCI  27
AUSTIN         CLOUDY    28  28 100 S6        30.15S FOG     WCI  22
PRESTON        FOG       28  27  97 SE6       30.17F VSB 1/2 WCI  21
$$
ABBREVIATIONS USED IN REMARKS
   TC - TEMPERATURES IN CELSIUS
  WCI - WIND CHILL INDEX
   HX - HEAT INDEX
  VSB - VISIBILITY
$$


USA.gov is the U.S. government's official web portal to all federal, state and local government web resources and services.